{"data":{"norad_id":56295,"intl_designator":"2023-056K","name":"STARLINK-30083","alt_names":[],"object_type":"PAYLOAD","status":"ACTIVE","operator":null,"country":"US","launch_date":"2023-04-19","launch_site_code":"AFETR","launch_vehicle":null,"mission":null,"orbit_class":"UNKNOWN","rcs_meters":null,"size_class":null,"mass_kg":null,"dimensions":null,"purposes":["comms"],"wikipedia_slug":null,"has_3d_model":false,"image_url":null,"decayed_at":null,"tle_current":{"epoch":"2026-05-24T23:05:15.159264Z","epoch_age_seconds":85304,"freshness":"FRESH","line1":"1 56295U 23056K   26144.96198101  .00000896  00000+0  42081-4 0  9996","line2":"2 56295  43.0047 112.9616 0001171 273.2596  86.8122 15.27575865171981","mean_motion":15.27575865,"eccentricity":0.0001171,"inclination_deg":43.0047,"raan_deg":112.9616,"arg_perigee_deg":273.2596,"mean_anomaly_deg":86.8122,"bstar":4.2081e-5,"rev_number":17198,"period_min":94.267003884616,"perigee_km":482.2580314034,"apogee_km":483.86492408689,"semimajor_km":6861.1984777451,"source":"CELESTRAK","updated_at":"2026-05-25T13:38:17.965859Z"}}}